2022-152E

Last updated on Tue Nov 15 2022 00:02:04 GMT+0000 (Coordinated Universal Time)

1 54241U 22152E 22317.57205315 -.00002480 78482-5 00000+0 0 9999 2 54241 41.0899 28.3371 0115404 161.7471 312.9570 16.37178695 207
UTC large
Height (km)
Speed (km/s)
/
Latitude / Longitude
Inclination (degrees)
Orbital Period (minutes)
Azimuth
Elevation
Range (km)
Doppler Factor

Next 0 passes for location: London (51.5072 / 0.1276)

Sorry there are no passes over London.